Wind_Speed
4 4 5 5 6 6 5 5 4 4 4 5 5 6 6 5 5 6 6 6 6 5 5 5 5 6 6 5 5 4 4 4 4 4 4 5 5 6 6 7 6 6 6
4 4 5 6 6 6 6 5 4 5 5 5 5 6 6 6 6 6 7 8 7 6 6 6 6 6 6 6 5 5 5 5 6 5 6 6 6 6 6 7 7 6 6
4 5 5 5 5 6 6 6 5 5 5 5 6 6 7 7 7 8 9 8 8 7 8 7 7 7 7 7 7 6 5 6 6 6 7 7 7 6 7 7 7 7 7
5 5 6 6 6 6 6 6 6 6 6 6 6 7 7 7 8 9 10 8 8 8 8 8 8 8 8 8 7 7 6 6 6 6 7 7 7 7 6 7 7 7 7
6 6 6 6 7 6 6 6 6 6 6 6 6 6 6 7 8 8 8 7 7 8 8 8 8 8 8 8 8 7 7 7 7 7 7 7 7 7 8 8 8 8 7
6 7 7 6 7 6 7 7 7 7 7 6 6 6 6 7 8 7 6 5 6 7 8 8 8 8 8 8 8 8 8 7 7 7 7 7 7 8 8 8 8 8 7
7 7 7 6 6 7 7 7 7 7 6 7 7 6 7 7 8 7 6 6 6 7 8 8 8 8 8 8 8 8 8 8 8 8 8 8 8 8 8 8 8 8 8
7 7 7 7 7 7 8 8 8 8 7 7 7 7 7 7 8 7 7 6 6 7 7 8 8 8 8 8 8 8 8 8 8 8 8 8 8 8 8 8 8 8 8
8 7 7 7 7 8 8 8 8 8 8 8 8 7 7 7 8 7 7 7 7 7 7 7 7 7 7 7 8 7 7 7 8 8 8 8 7 7 8 8 8 8 8
8 8 8 8 8 8 8 8 8 8 8 8 8 8 7 7 8 7 7 7 7 7 7 7 7 7 7 7 7 7 7 7 7 7 7 7 8 7 7 8 8 8 8
8 9 9 8 8 8 8 9 9 9 9 9 8 8 8 7 7 7 7 8 8 8 7 7 6 6 7 7 7 7 7 7 7 7 7 7 7 7 7 8 8 8 8
9 9 9 9 9 10 10 9 10 10 9 9 9 9 9 8 8 7 7 7 8 8 7 6 7 6 6 6 7 7 7 7 7 7 7 7 8 8 8 7 7 7 7
10 10 10 10 10 10 10 9 9 9 9 9 9 9 9 9 9 8 7 7 7 7 7 7 8 7 6 6 7 8 7 7 7 7 7 7 8 8 7 7 7 7 7
10 10 10 10 10 10 10 9 9 9 10 10 10 9 9 9 9 8 8 8 8 8 8 9 8 8 7 7 7 7 8 8 7 8 8 8 8 8 8 8 8 7 8
10 10 10 11 11 11 10 9 9 9 10 10 10 10 10 10 10 8 8 7 7 7 7 7 7 7 7 7 7 7 7 8 8 9 9 9 9 8 8 9 9 9 8
11 11 10 10 10 10 10 9 10 10 10 10 10 10 10 10 9 8 8 7 7 7 7 7 7 7 7 7 7 8 8 9 10 10 9 10 9 9 9 9 9 9 9
11 10 10 10 10 10 10 10 10 10 10 9 9 9 9 9 8 8 7 7 7 6 6 6 6 6 6 7 8 8 9 10 10 10 10 10 10 10 10 9 9 10 10
10 10 10 10 10 10 10 10 10 9 9 8 8 8 8 8 8 7 7 7 7 7 6 6 6 7 7 7 8 8 9 9 10 10 10 11 11 10 10 10 10 10 10
10 10 10 11 10 10 10 9 9 8 8 7 8 8 7 8 8 7 8 8 7 7 7 7 8 7 7 8 8 9 9 9 9 10 10 11 11 11 11 11 11 11 11
10 11 10 10 10 10 9 9 8 8 7 8 7 7 8 8 8 7 7 7 7 7 8 8 9 8 8 9 9 10 10 10 10 10 11 11 11 12 12 13 13 12 11
10 10 10 10 10 10 9 9 9 8 8 8 8 8 8 8 8 8 8 7 8 8 9 9 9 9 9 9 10 10 11 10 11 11 11 12 12 12 13 13 13 12 12
10 10 10 10 10 9 9 9 8 8 8 8 9 9 9 9 9 9 9 8 8 9 9 10 9 9 9 10 10 10 10 11 11 11 11 11 11 11 11 12 12 12 12
10 10 10 10 10 9 9 8 9 8 9 9 9 8 9 9 9 10 9 9 9 9 10 10 10 10 10 11 11 11 11 11 11 11 10 10 10 10 10 11 11 12 12
10 10 9 9 9 8 8 8 9 9 9 9 9 9 9 9 9 9 10 10 10 10 10 10 11 11 11 11 12 12 12 12 10 10 9 9 10 10 10 11 11 12 12
10 10 10 10 9 9 9 9 8 9 9 9 9 10 10 10 9 9 10 10 10 10 10 11 11 11 12 12 12 12 12 12 11 10 9 10 10 10 11 11 11 10 11
11 11 11 10 10 10 10 10 10 9 10 10 10 10 10 10 10 11 11 11 11 11 11 11 11 11 12 12 12 12 12 12 11 10 10 10 10 11 11 11 11 11 11
Wind_Direction
359 357 351 352 355 1 2 1 359 349 348 339 332 331 332 322 316 310 309 302 297 297 297 299 306 307 308 301 300 298 294 288 281 279 279 283 287 284 285 283 285 288 285
344 342 340 344 347 354 1 0 356 350 342 334 325 324 324 318 312 308 305 297 291 290 291 291 293 299 300 304 304 299 292 287 286 282 283 283 285 286 287 285 287 291 292
325 325 326 332 335 339 343 345 343 340 333 329 321 318 319 319 313 307 303 294 287 287 288 285 287 291 294 297 297 294 289 286 284 285 286 285 287 290 292 288 285 291 294
307 311 315 320 322 324 328 328 328 332 329 325 323 320 318 317 315 311 304 294 285 282 285 285 284 286 288 290 290 291 289 284 282 283 284 284 285 286 291 294 294 298 299
298 301 307 310 312 314 319 322 320 322 321 323 320 319 321 320 317 316 311 295 284 280 283 286 284 283 287 289 286 285 283 280 276 279 280 277 279 283 284 288 292 295 294
294 296 301 307 308 311 313 315 315 317 316 316 314 311 313 314 317 318 317 303 288 287 289 286 285 285 287 289 285 282 277 277 275 276 278 276 277 280 283 285 288 289 286
294 294 298 302 304 310 313 313 313 313 314 313 308 302 307 309 314 315 311 304 299 294 293 290 285 285 285 283 283 280 276 274 274 275 275 276 278 278 280 283 286 285 282
291 294 299 301 301 306 307 307 309 309 308 308 307 301 304 306 308 312 310 305 300 299 297 291 287 285 282 278 276 275 275 273 270 272 271 275 274 277 281 283 280 279 281
286 289 294 297 298 302 306 304 303 302 303 304 304 301 298 301 303 302 303 298 295 295 295 293 290 286 284 276 273 275 275 273 273 274 271 272 273 275 278 280 280 278 279
283 283 284 289 291 295 300 302 301 300 300 302 301 295 291 293 297 298 296 296 292 291 292 290 286 280 277 276 275 277 278 275 273 273 275 272 274 273 277 279 279 276 276
278 279 281 284 286 289 293 297 298 296 296 299 298 289 285 284 283 285 288 288 287 287 287 289 291 289 283 281 281 280 279 279 276 274 276 275 273 272 276 280 282 276 276
280 279 280 283 286 287 287 286 288 288 291 295 294 287 282 278 276 275 280 284 283 282 287 294 300 299 292 285 284 284 282 281 279 278 281 277 275 278 280 278 282 278 276
280 279 281 282 283 284 284 283 285 284 288 289 288 284 281 276 274 277 279 281 283 287 291 292 297 296 294 288 284 284 281 284 278 280 281 277 278 281 281 280 284 280 277
286 283 283 283 285 285 282 280 284 286 285 285 284 282 279 276 277 281 286 289 287 286 289 289 289 290 290 286 281 280 279 280 280 281 281 278 276 278 282 282 284 281 281
287 287 284 284 284 282 280 279 280 282 282 284 286 285 283 280 283 286 285 287 290 291 294 293 286 288 284 281 282 281 280 282 285 283 281 278 278 278 280 280 280 280 283
283 285 284 284 281 280 280 276 279 282 284 285 286 286 285 284 286 287 284 285 280 281 285 287 286 281 284 280 282 281 282 284 285 282 279 279 279 279 281 280 278 280 281
282 284 286 284 283 283 284 282 282 283 284 286 286 284 285 285 283 283 281 281 278 281 286 286 287 283 286 285 283 282 279 280 279 279 279 278 277 279 279 279 280 279 280
282 284 285 284 281 281 283 281 281 283 285 285 282 281 281 282 281 279 278 278 279 282 285 285 287 288 290 289 284 283 280 281 282 281 279 276 275 275 276 278 279 278 278
280 281 281 283 280 280 282 281 278 278 279 279 279 282 281 282 282 282 274 275 276 281 283 283 288 292 289 289 287 286 283 285 287 285 283 279 275 275 275 276 276 274 275
275 275 276 278 280 283 281 279 277 275 275 276 276 281 281 281 280 280 277 274 272 274 280 283 285 292 291 290 290 287 285 283 287 287 285 282 279 278 276 274 274 274 272
272 272 276 276 280 283 282 280 278 277 277 277 275 278 282 281 279 275 274 273 273 273 276 281 286 292 294 294 292 289 288 286 289 287 287 285 284 279 275 273 271 273 270
273 275 279 283 285 285 281 278 277 275 276 280 282 279 281 279 279 276 273 272 274 276 277 278 285 291 297 298 296 294 293 291 290 290 288 286 283 280 278 274 270 268 268
269 273 277 279 280 281 277 273 272 274 274 276 277 279 279 276 278 275 270 274 280 280 281 281 284 290 295 299 299 297 297 294 289 287 286 284 284 282 282 279 275 271 268
264 270 275 276 275 276 275 272 271 272 272 272 274 276 277 275 276 276 272 271 276 279 280 282 282 287 291 294 297 298 299 297 292 287 286 285 285 284 283 281 280 277 271
263 266 270 273 272 272 272 274 275 272 270 270 274 277 276 275 276 277 276 276 276 278 279 282 284 288 290 291 296 300 300 298 292 287 284 284 286 287 285 284 284 280 276
264 266 269 272 273 271 269 269 271 271 270 272 275 279 278 275 278 278 277 278 278 280 281 283 285 288 289 288 292 298 300 299 292 287 285 284 285 285 285 285 284 282 279
Height
5881 5880 5879 5878 5877 5875 5873 5872 5872 5873 5874 5874 5873 5873 5873 5873 5872 5872 5871 5871 5871 5871 5871 5872 5872 5872 5872 5872 5871 5871 5871 5871 5872 5872 5872 5872 5873 5873 5873 5872 5872 5872 5871
5881 5880 5879 5878 5877 5876 5874 5873 5873 5873 5873 5873 5873 5872 5872 5872 5871 5870 5870 5870 5870 5870 5870 5871 5871 5871 5871 5871 5871 5870 5870 5870 5871 5871 5871 5871 5872 5872 5872 5871 5871 5870 5869
5880 5880 5879 5878 5877 5876 5875 5874 5873 5873 5873 5872 5872 5871 5871 5870 5870 5869 5867 5867 5868 5869 5869 5869 5870 5870 5870 5870 5870 5870 5869 5869 5870 5870 5870 5870 5870 5870 5870 5870 5870 5869 5868
5880 5879 5879 5878 5877 5876 5875 5874 5873 5873 5872 5872 5871 5871 5870 5869 5868 5866 5864 5863 5865 5867 5868 5868 5868 5868 5868 5868 5868 5868 5868 5868 5868 5869 5869 5869 5869 5869 5868 5868 5868 5868 5867
5879 5878 5878 5877 5876 5875 5874 5874 5873 5872 5871 5871 5870 5870 5869 5868 5867 5864 5860 5860 5863 5865 5866 5867 5867 5867 5867 5867 5867 5867 5867 5867 5867 5867 5868 5868 5868 5868 5867 5867 5867 5867 5867
5878 5877 5877 5876 5875 5874 5874 5873 5872 5871 5871 5870 5869 5869 5868 5867 5866 5864 5861 5861 5862 5864 5865 5865 5865 5865 5865 5865 5865 5865 5865 5865 5866 5866 5866 5866 5867 5866 5866 5866 5866 5866 5865
5877 5876 5875 5875 5874 5873 5872 5872 5871 5870 5870 5869 5868 5868 5867 5867 5866 5864 5863 5862 5863 5864 5864 5864 5864 5864 5864 5864 5864 5864 5864 5864 5864 5865 5865 5865 5865 5865 5864 5864 5864 5864 5864
5875 5875 5874 5873 5873 5872 5871 5870 5870 5869 5868 5868 5867 5867 5866 5865 5865 5864 5863 5863 5863 5863 5863 5863 5863 5863 5862 5862 5862 5862 5862 5862 5863 5863 5863 5863 5863 5863 5863 5863 5863 5862 5863
5873 5873 5873 5872 5871 5870 5870 5869 5868 5867 5867 5866 5866 5865 5865 5864 5864 5863 5863 5862 5862 5862 5862 5861 5861 5861 5861 5861 5861 5861 5861 5861 5861 5861 5862 5862 5862 5862 5861 5861 5861 5861 5861
5872 5871 5871 5870 5870 5869 5868 5867 5867 5866 5865 5865 5864 5863 5863 5863 5862 5862 5862 5861 5861 5861 5860 5860 5860 5860 5859 5859 5859 5859 5859 5859 5859 5860 5860 5860 5860 5860 5860 5860 5859 5859 5859
5870 5869 5869 5868 5868 5867 5866 5866 5865 5864 5864 5863 5862 5862 5861 5861 5861 5860 5860 5860 5860 5859 5859 5859 5858 5858 5858 5858 5858 5858 5858 5858 5858 5858 5858 5858 5858 5858 5858 5858 5858 5858 5858
5868 5868 5867 5866 5866 5865 5864 5863 5863 5862 5862 5861 5861 5860 5860 5859 5859 5859 5858 5858 5858 5858 5857 5857 5857 5857 5857 5857 5857 5857 5857 5857 5857 5857 5857 5857 5857 5857 5856 5856 5856 5856 5856
5866 5866 5865 5864 5863 5863 5862 5861 5861 5860 5860 5859 5859 5858 5858 5857 5857 5857 5857 5857 5856 5856 5856 5856 5856 5856 5856 5856 5856 5855 5855 5855 5856 5856 5856 5855 5855 5855 5855 5855 5855 5854 5854
5864 5863 5862 5862 5861 5860 5860 5859 5859 5858 5858 5857 5856 5856 5856 5855 5855 5855 5855 5855 5855 5854 5854 5854 5854 5854 5854 5854 5854 5854 5854 5854 5854 5854 5854 5854 5853 5853 5853 5853 5853 5853 5853
5861 5860 5860 5859 5859 5858 5857 5857 5856 5856 5855 5855 5854 5854 5853 5853 5853 5853 5853 5853 5853 5853 5853 5853 5853 5853 5853 5853 5853 5852 5852 5852 5852 5852 5852 5852 5851 5851 5851 5851 5851 5850 5851
5859 5858 5857 5857 5856 5855 5855 5854 5854 5853 5852 5852 5852 5851 5851 5851 5851 5851 5851 5851 5851 5851 5851 5851 5851 5851 5851 5851 5851 5851 5850 5850 5850 5850 5850 5849 5849 5849 5849 5849 5848 5848 5848
5856 5855 5855 5854 5854 5853 5852 5852 5851 5850 5850 5850 5849 5849 5849 5849 5849 5849 5849 5849 5849 5849 5849 5849 5849 5849 5849 5849 5849 5849 5848 5848 5848 5847 5847 5847 5847 5847 5846 5846 5846 5846 5846
5854 5853 5853 5852 5851 5850 5849 5849 5848 5848 5847 5847 5847 5846 5847 5847 5847 5847 5847 5847 5847 5847 5847 5848 5848 5848 5847 5847 5847 5846 5846 5846 5845 5845 5844 5844 5844 5844 5844 5844 5843 5843 5843
5851 5851 5850 5849 5848 5847 5846 5845 5845 5845 5845 5844 5844 5844 5844 5845 5845 5845 5845 5845 5845 5845 5846 5846 5846 5846 5845 5845 5845 5844 5844 5843 5843 5842 5841 5841 5841 5841 5841 5841 5841 5841 5841
5849 5848 5848 5847 5845 5844 5844 5843 5843 5842 5842 5842 5842 5842 5842 5842 5842 5843 5843 5843 5843 5844 5844 5844 5843 5843 5843 5843 5842 5842 5841 5840 5840 5839 5838 5838 5838 5837 5838 5837 5838 5838 5838
5847 5846 5845 5844 5843 5842 5841 5840 5840 5840 5840 5840 5840 5840 5840 5840 5840 5840 5841 5841 5841 5841 5842 5841 5841 5841 5841 5840 5840 5840 5839 5838 5837 5836 5835 5834 5834 5834 5834 5834 5834 5834 5834
5844 5843 5842 5841 5840 5839 5839 5838 5838 5838 5838 5838 5838 5838 5838 5838 5838 5838 5838 5839 5839 5839 5839 5839 5839 5839 5838 5838 5837 5837 5836 5836 5834 5833 5832 5831 5830 5830 5830 5830 5830 5830 5831
5842 5841 5840 5838 5837 5837 5836 5836 5836 5836 5836 5836 5836 5836 5835 5835 5836 5836 5836 5836 5836 5837 5837 5837 5836 5836 5836 5835 5834 5834 5833 5832 5831 5830 5829 5828 5827 5827 5827 5827 5826 5826 5827
5839 5838 5837 5836 5835 5835 5834 5834 5834 5834 5833 5834 5834 5833 5833 5833 5833 5833 5834 5834 5834 5834 5834 5834 5834 5833 5833 5832 5831 5830 5830 5828 5827 5826 5826 5825 5825 5824 5824 5824 5823 5823 5823
5836 5835 5835 5834 5833 5832 5832 5832 5832 5831 5831 5831 5831 5831 5831 5831 5831 5831 5831 5832 5832 5832 5831 5831 5831 5830 5830 5829 5828 5827 5826 5825 5824 5823 5823 5823 5822 5822 5821 5821 5821 5820 5820
5833 5833 5832 5831 5831 5830 5830 5829 5829 5829 5829 5829 5829 5829 5829 5829 5829 5829 5829 5829 5829 5829 5829 5828 5828 5827 5827 5826 5825 5824 5823 5822 5821 5821 5820 5820 5820 5819 5819 5818 5818 5817 5817